Regional Weather Roundup
Issued by NWS

Home | Current Version | Previous Version | Text Only | Print | Product List | Glossary On
Versions: 1 2 3 4 5 6 7 8 9 10 11 12 13 14 15 16 17 18 19 20 21 22 23 24 25 26 27 28 29 30 31 32 33 34 35 36 37 38 39 40 41 42 43 44 45 46 47 48 49 50
000
ASUS43 KTOP 020408
RWRKS

WEATHER ROUNDUP FOR KANSAS
NATIONAL WEATHER SERVICE GOODLAND KS
1100 PM CDT SUN MAY 01 2016

NOTE:  "FAIR" INDICATES FEW OR NO CLOUDS BELOW 12,000 FEET WITH NO
SIGNIFICANT WEATHER AND/OR OBSTRUCTIONS TO VISIBILITY.

KSZ001>006-013>018-027>032-041>047-020500-
NORTHWEST KANSAS

CITY           SKY/WX    TMP DP  RH WIND       PRES   REMARKS
GOODLAND       CLEAR     35  31  85 NW9       30.25R
HAYS           CLOUDY    45  34  65 NW3       30.23R
HILL CITY      CLOUDY    40  38  93 NW5       30.24R
RUSSELL        CLOUDY    46  41  82 NW6       30.21R
$$

KSZ061>065-074>080-084>089-020500-
SOUTHWEST KANSAS

CITY           SKY/WX    TMP DP  RH WIND       PRES   REMARKS
DODGE CITY     LGT RAIN  43  39  86 CALM      30.24R
ELKHART          N/A     42  39  89 W2          N/A
GARDEN CITY    CLOUDY    43  39  86 NW5       30.24R
GREAT BEND     CLOUDY    46  37  71 NE7       30.23R
LIBERAL        CLOUDY    45  39  81 W3        30.26R
PRATT          LGT RAIN  43  39  87 N9        30.22S
$$

KSZ066>073-081>083-090>101-020500-
SOUTHEAST KANSAS

CITY           SKY/WX    TMP DP  RH WIND       PRES   REMARKS
CHANUTE        CLOUDY    53  44  71 N10       30.14R
COFFEYVILLE    CLOUDY    56  47  71 NW10      30.13R
HUTCHINSON     CLOUDY    48  41  76 N6        30.22R
MEDICINE LODGE   N/A     47  43  86 N5        30.21R
NEWTON         CLOUDY    46  37  71 N8        30.22R
PARSONS        CLOUDY    55  48  77 N13       30.14R
WICHITA INTL   LGT RAIN  50  42  74 N12       30.19R
WICHITA JABRA  CLOUDY    49  43  80 NW14      30.18S
WICHITA MCCONL CLOUDY    49  42  76 N13       30.18R
WINFIELD       CLOUDY    51  44  77 NW8       30.19R
$$

KSZ007>012-019>026-033>040-048>060-102>105-020500-
NORTHEAST KANSAS

CITY           SKY/WX    TMP DP  RH WIND       PRES   REMARKS
CONCORDIA      CLOUDY    47  42  83 NW5       30.20R
EMPORIA        CLOUDY    49  42  77 N9        30.16R
LAWRENCE       CLOUDY    50  43  77 N8        30.15R
MANHATTAN      CLOUDY    49  41  74 N3        30.18R
MARYSVILLE     CLOUDY    46  43  87 CALM      30.18R
OLATHE IND     CLOUDY    50  44  80 N12       30.15R
OLATHE EXE     CLOUDY    49  44  83 N6        30.14R
SALINA         CLOUDY    49  43  80 NW6       30.22R
TOPEKA BILLARD CLOUDY    49  43  80 NW6       30.17R
TOPEKA FORBES  CLOUDY    50  43  77 N6        30.16R
$$




USA.gov is the U.S. government's official web portal to all federal, state and local government web resources and services.